Location: *
(47.8307°S, 178.3954°E)
Time: 07:05:08
(UTC+00:00)

Meteor 2-5 Rocket - Pass Details

Date: 12 August 2024
Orbit: 833 x 910 km, 81.2° (Epoch: 18 September)

Event Time Altitude Azimuth Distance (km) Brightness Sun altitude
Exits shadow 16:26:53 71° 205° (SSW) 971 3.8 -28.3°
Drops below altitude 10° 16:32:17 10° 171° (S) 2,608 6.4 -27.4°
Sets 16:34:46 0° 169° (S) 3,546 7.2 -27.0°
